#timestamp,LO_Frequency,Hit,Temp,Hum 
1488002415.4,286046955.2,N,0.0,0.0
1488002435.2,286046955.8,N,0.0,0.0
1488002455.0,286046955.2,N,0.0,0.0
1488002455.9,286046955.2,N,0.0,0.0
1488002475.8,286046956.5,N,0.0,0.0
1488002495.6,286046960.3,N,0.0,0.0
1488002515.4,286046962.7,N,0.0,0.0
1488002535.3,286046963.9,N,0.0,0.0
1488002555.1,286046963.4,N,0.0,0.0
1488002556.0,286046963.4,N,0.0,0.0
1488002575.8,286046966.9,N,0.0,0.0
1488002595.7,286046964.3,N,0.0,0.0
1488002615.5,286046968.7,N,0.0,0.0
1488002635.3,286046966.8,N,0.0,0.0
1488002655.1,286046967.3,N,0.0,0.0
1488002675.9,286046969.0,N,0.0,0.0
1488002695.7,286046968.3,N,0.0,0.0
1488002715.5,286046968.0,N,0.0,0.0
1488002735.4,286046970.7,N,0.0,0.0
1488002755.2,286046973.5,N,0.0,0.0
1488002775.0,286046971.4,N,0.0,0.0
1488002775.9,286046971.4,N,0.0,0.0
1488002795.8,286046973.4,N,0.0,0.0
1488002815.6,286046975.3,N,0.0,0.0
1488002835.4,286046974.9,N,0.0,0.0
1488002855.3,286046974.2,N,0.0,0.0
1488002875.1,286046978.8,N,0.0,0.0
1488002895.8,286046974.6,N,0.0,0.0
1488002915.7,286046975.7,N,0.0,0.0
1488002935.5,286046977.6,N,0.0,0.0
1488002955.3,286046980.3,N,0.0,0.0
1488002975.2,286046978.1,N,0.0,0.0
1488002995.9,286046980.3,N,0.0,0.0
1488003015.7,286046979.8,N,0.0,0.0
1488003035.6,286046977.3,N,0.0,0.0
1488003055.4,286046980.5,N,0.0,0.0
1488003075.2,286046980.9,N,0.0,0.0
1488003095.0,286046980.7,N,0.0,0.0
1488003096.0,286046980.7,N,0.0,0.0
1488003115.8,286046981.5,N,0.0,0.0
1488003135.6,286046983.6,N,0.0,0.0
1488003155.4,286046983.1,N,0.0,0.0
1488003175.3,286046982.1,N,0.0,0.0
1488003195.1,286046982.5,N,0.0,0.0
1488003215.8,286046984.3,N,0.0,0.0
1488003235.7,286046986.3,N,0.0,0.0
1488003255.5,286046988.4,N,0.0,0.0
1488003275.3,286046988.0,N,0.0,0.0
1488003295.2,286046987.6,N,0.0,0.0
1488003315.9,286046986.0,N,0.0,0.0
1488003335.7,286046989.9,N,0.0,0.0
1488003355.6,286046989.8,N,0.0,0.0
1488003375.4,286046987.5,N,0.0,0.0
1488003395.2,286046989.4,N,0.0,0.0
1488003415.1,286046990.9,N,0.0,0.0
1488003416.0,286046990.9,N,0.0,0.0
1488003435.8,286046991.7,N,0.0,0.0
1488003455.6,286046992.9,N,0.0,0.0
1488003475.5,286046992.4,N,0.0,0.0
1488003495.3,286046992.4,N,0.0,0.0
1488003515.1,286046992.2,N,0.0,0.0
1488003535.9,286046993.6,N,0.0,0.0
1488003555.7,286046997.2,N,0.0,0.0
1488003575.5,286046997.3,N,0.0,0.0
1488003595.3,286046999.3,N,0.0,0.0
1488003615.2,286047000.8,N,0.0,0.0
1488003635.0,286046999.8,N,0.0,0.0
1488003635.9,286046999.8,N,0.0,0.0
1488003655.7,286046999.1,N,0.0,0.0
1488003675.6,286047000.3,N,0.0,0.0
1488003695.4,286046998.5,N,0.0,0.0
1488003715.2,286047000.1,N,0.0,0.0
1488003735.1,286047002.2,N,0.0,0.0
1488003736.0,286047002.2,N,0.0,0.0
1488003755.8,286047000.0,N,0.0,0.0
1488003775.6,286047003.4,N,0.0,0.0
1488003795.5,286047003.0,N,0.0,0.0
1488003815.3,286047005.9,N,0.0,0.0
1488003835.1,286047001.4,N,0.0,0.0
1488003855.9,286047004.8,N,0.0,0.0
1488003875.7,286047002.9,N,0.0,0.0
1488003895.5,286047005.3,N,0.0,0.0
1488003915.4,286047007.3,N,0.0,0.0
1488003935.2,286047006.3,N,0.0,0.0
1488003955.0,286047008.7,N,0.0,0.0
1488003955.9,286047008.7,N,0.0,0.0
1488003975.8,286047007.6,N,0.0,0.0
1488003995.6,286047010.2,N,0.0,0.0
1488004015.4,286047009.5,N,0.0,0.0
1488004035.3,286047013.8,N,0.0,0.0
1488004055.1,286047009.8,N,0.0,0.0
1488004056.0,286047009.8,N,0.0,0.0
1488004075.8,286047013.2,N,0.0,0.0
1488004095.7,286047012.5,N,0.0,0.0
1488004115.5,286047012.9,N,0.0,0.0
1488004135.3,286047015.0,N,0.0,0.0
1488004155.2,286047014.2,N,0.0,0.0
1488004175.9,286047017.5,N,0.0,0.0
1488004195.7,286047019.7,N,0.0,0.0
1488004215.6,286047017.7,N,0.0,0.0
1488004235.4,286047035.4,N,0.0,0.0
1488004255.2,286047031.9,N,0.0,0.0
1488004275.0,286047032.2,N,0.0,0.0
1488004276.0,286047032.2,N,0.0,0.0
1488004295.8,286047034.3,N,0.0,0.0
1488004315.6,286047033.2,N,0.0,0.0
1488004335.4,286046888.9,N,0.0,0.0
1488004355.3,286047031.3,N,0.0,0.0
1488004375.1,286047027.7,N,0.0,0.0
1488004395.8,286047021.5,N,0.0,0.0
1488004415.7,286047023.2,N,0.0,0.0
1488004435.5,286047026.2,N,0.0,0.0
1488004455.3,286047025.5,N,0.0,0.0
1488004475.2,286047024.8,N,0.0,0.0
1488004495.9,286047027.9,N,0.0,0.0
1488004515.7,286047026.5,N,0.0,0.0
1488004535.6,286047026.5,N,0.0,0.0
1488004555.4,286047027.5,N,0.0,0.0
1488004575.2,286047027.3,N,0.0,0.0
1488004595.1,286047028.8,N,0.0,0.0
1488004596.0,286047028.8,N,0.0,0.0
1488004615.8,286047027.5,N,0.0,0.0
1488004635.6,286047028.3,N,0.0,0.0
1488004655.5,286047029.9,N,0.0,0.0
1488004675.3,286047028.7,N,0.0,0.0
1488004695.1,286047030.0,N,0.0,0.0
1488004715.9,286047029.6,N,0.0,0.0
1488004735.7,286047027.3,N,0.0,0.0
1488004755.5,286047028.4,N,0.0,0.0
1488004775.4,286047026.1,N,0.0,0.0
1488004795.2,286047027.0,N,0.0,0.0
1488004815.0,286047029.8,N,0.0,0.0
1488004815.9,286047029.8,N,0.0,0.0
1488004835.8,286047028.3,N,0.0,0.0
1488004855.6,286047022.1,N,0.0,0.0
1488004875.4,286047018.9,N,0.0,0.0
1488004895.2,286047023.1,N,0.0,0.0
1488004915.1,286047025.2,N,0.0,0.0
1488004916.0,286047025.2,N,0.0,0.0
1488004935.8,286047025.1,N,0.0,0.0
1488004955.6,286047025.1,N,0.0,0.0
1488004975.5,286047021.1,N,0.0,0.0
1488004995.3,286047021.1,N,0.0,0.0
1488005015.1,286047015.7,N,0.0,0.0
1488005035.9,286047015.7,N,0.0,0.0
1488005055.7,286047017.3,N,0.0,0.0
1488005075.5,286047016.3,N,0.0,0.0
1488005095.4,286047015.1,N,0.0,0.0
1488005115.2,286047015.4,N,0.0,0.0
1488005135.0,286047013.3,N,0.0,0.0
1488005135.9,286047013.3,N,0.0,0.0
1488005155.8,286047011.2,N,0.0,0.0
1488005175.6,286047010.8,N,0.0,0.0
1488005195.4,286047013.9,N,0.0,0.0
1488005215.3,286047009.8,N,0.0,0.0
1488005235.1,286047007.8,N,0.0,0.0
1488005236.0,286047007.8,N,0.0,0.0
1488005255.8,286047011.9,N,0.0,0.0
1488005275.7,286047010.5,N,0.0,0.0
1488005295.5,286047012.3,N,0.0,0.0
1488005315.3,286047012.0,N,0.0,0.0
1488005335.2,286047013.6,N,0.0,0.0
1488005355.9,286047011.6,N,0.0,0.0
1488005375.7,286047012.0,N,0.0,0.0
1488005395.6,286047014.0,N,0.0,0.0
1488005415.4,286047013.3,N,0.0,0.0
1488005435.2,286047011.4,N,0.0,0.0
1488005455.1,286047011.9,N,0.0,0.0
1488005456.0,286047011.9,N,0.0,0.0
1488005475.8,286047010.1,N,0.0,0.0
1488005495.6,286047010.0,N,0.0,0.0
1488005515.5,286047009.0,N,0.0,0.0
1488005535.3,286047006.1,N,0.0,0.0
1488005555.1,286047008.0,N,0.0,0.0
1488005575.8,286047008.8,N,0.0,0.0
1488005595.7,286047010.8,N,0.0,0.0
1488005615.5,286047009.4,N,0.0,0.0
1488005635.3,286047010.8,N,0.0,0.0
1488005655.8,286047006.8,N,0.0,0.0
1488005675.7,286047003.6,N,0.0,0.0
1488005695.5,286047007.4,N,0.0,0.0
1488005715.3,286047006.9,N,0.0,0.0
1488005735.2,286047003.6,N,0.0,0.0
1488005755.9,286047001.4,N,0.0,0.0
1488005775.7,286047003.1,N,0.0,0.0
1488005795.5,286047004.5,N,0.0,0.0
1488005815.4,286047006.0,N,0.0,0.0
1488005835.2,286047001.4,N,0.0,0.0
1488005855.4,286046999.9,N,0.0,0.0
1488005875.2,286047000.5,N,0.0,0.0
1488005895.1,286046995.4,N,0.0,0.0
1488005896.0,286046995.4,N,0.0,0.0
1488005915.8,286046995.9,N,0.0,0.0
1488005935.6,286046997.7,N,0.0,0.0
1488005955.5,286046995.4,N,0.0,0.0
1488005975.3,286046993.8,N,0.0,0.0
1488005995.1,286046992.9,N,0.0,0.0
